View from above orbital plane
|
View from above satellite
|
Ground track
|
The orbit data is extracted from the following two-line orbital elements,
1 27847U 03031H 21023.75499018 .00000039 00000-0 37076-4 0 9995
2 27847 98.6857 32.6728 0010368 110.6001 249.6290 14.22234683911545
Epoch (UTC): | 23 January 2021 18:07:11 |
Eccentricity: | 0.0010368 |
inclination: | 98.6857° |
perigee height: | 810 km |
apogee height: | 825 km |
right ascension of ascending node: | 32.6728° |
argument of perigee: | 110.6001° |
revolutions per day: | 14.22234683 |
mean anomaly at epoch: | 249.6290° |
orbit number at epoch: | 91154 |
The dashed part of the orbit path shows where the satellite is in the earth's shadow,
|
|